Ketchikan, AK

6:57 AM AKST on December 18, 2018 (GMT -0900)
Ketchikan International

Weather History for PAKT - November, 2017

Change the Weather History Date:

Thursday, November 30, 2017

  Actual Average Record
Temperature  
Mean Temperature 40 °F -  
Max Temperature 44 °F 43 °F 52 °F (1969)
Min Temperature 35 °F 32 °F 12 °F (2005)
Degree Days  
Heating Degree Days 25    
Moisture  
Dew Point 37 °F    
Average Humidity 90    
Maximum Humidity 100    
Minimum Humidity 76    
Precipitation  
Precipitation 0.60 in - - ()
Sea Level Pressure  
Sea Level Pressure 29.70 in    
Wind  
Wind Speed 10 mph (SSE)    
Max Wind Speed 16 mph    
Max Gust Speed 31 mph    
Visibility 8 miles    
Events Rain    
Averages and records for this station are not official NWS values.
T = Trace of Precipitation, MM = Missing Value Source: NWS Daily Summary

Daily Weather History Graph

Daily Weather History Graph

Search for Another Location

Airport or City:

Astronomy

Nov. 30, 2017 Rise Set
Actual Time 7:49 AM AKST 3:21 PM AKST
Civil Twilight 7:04 AM AKST 4:06 PM AKST
Nautical Twilight 6:17 AM AKST 4:53 PM AKST
Astronomical Twilight 5:33 AM AKST 5:37 PM AKST
Moon 2:28 PM AKST (11/30) 3:18 AM AKST (11/30)
Length of Visible Light 9h 01m
Length of Day
7h 32m
Waxing Gibbous, 89% of the Moon is Illuminated
Nov 30
Waxing Gibbous
Dec 3
Full
Dec 9
Last Quarter
Dec 17
New
Dec 26
First Quarter

Hourly Weather History & Observations

Time (AKST) Temp. Windchill Dew Point Humidity Pressure Visibility Wind Dir Wind Speed Gust Speed Precip Events Conditions
12:53 AM 44.1 °F 37.1 °F 39.0 °F 82% 29.72 in 10.0 mi SE 15.0 mph 23.0 mph 0.00 in   Overcast
1:02 AM 44.1 °F 36.8 °F 37.0 °F 76% 29.73 in 8.0 mi SSE 16.1 mph 31.1 mph 0.00 in Rain Light Rain
1:16 AM 42.1 °F 35.7 °F 37.9 °F 85% 29.73 in 4.0 mi SSE 11.5 mph 24.2 mph 0.03 in Rain Light Rain
1:53 AM 41.0 °F 34.7 °F 37.9 °F 89% 29.73 in 2.0 mi SE 10.4 mph - 0.16 in Rain Heavy Rain
2:01 AM 39.9 °F 32.9 °F 37.0 °F 89% 29.72 in 1.8 mi SE 11.5 mph - 0.07 in Rain Heavy Rain
2:07 AM 41.0 °F 34.3 °F 37.9 °F 89% 29.72 in 3.0 mi SE 11.5 mph 20.7 mph 0.09 in Rain Rain
2:53 AM 41.0 °F 33.1 °F 37.9 °F 89% 29.71 in 10.0 mi SSE 15.0 mph 25.3 mph 0.18 in Rain Light Rain
3:34 AM 42.1 °F 34.5 °F 39.9 °F 92% 29.69 in 8.0 mi SE 15.0 mph - 0.00 in Rain Light Rain
3:53 AM 42.1 °F 36.1 °F 39.9 °F 92% 29.70 in 10.0 mi SE 10.4 mph - 0.00 in   Overcast
4:03 AM 43.0 °F 37.7 °F 39.9 °F 89% 29.69 in 10.0 mi SE 9.2 mph - 0.01 in Rain Light Rain
4:53 AM 42.1 °F 37.7 °F 37.9 °F 85% 29.71 in 10.0 mi SE 6.9 mph - 0.01 in   Overcast
5:44 AM 41.0 °F 34.7 °F 35.1 °F 79% 29.72 in 10.0 mi SE 10.4 mph - 0.01 in Rain Light Rain
5:53 AM 39.9 °F 35.8 °F 35.1 °F 83% 29.73 in 10.0 mi SE 5.8 mph - 0.01 in   Scattered Clouds
6:03 AM 39.2 °F 33.6 °F 35.6 °F 87% 29.73 in 10.0 mi SE 8.1 mph - N/A   Mostly Cloudy
6:53 AM 39.2 °F 37.0 °F 37.4 °F 93% 29.75 in 10.0 mi South 3.5 mph - N/A   Mostly Cloudy
7:53 AM 39.2 °F 34.2 °F 37.4 °F 93% 29.75 in 10.0 mi SE 6.9 mph - N/A   Overcast
8:53 AM 37.4 °F 34.9 °F 35.6 °F 93% 29.76 in 10.0 mi South 3.5 mph - N/A   Mostly Cloudy
9:53 AM 39.0 °F 34.8 °F 37.0 °F 93% 29.77 in 5.0 mi SE 5.8 mph - 0.03 in Rain Light Rain
10:53 AM 41.0 °F 36.4 °F 37.4 °F 87% 29.76 in 10.0 mi SSE 6.9 mph - N/A   Mostly Cloudy
11:51 AM 42.8 °F 41.1 °F 39.2 °F 87% 29.75 in 5.0 mi South 3.5 mph - N/A Rain Light Rain
11:53 AM 42.8 °F 40.1 °F 39.2 °F 87% 29.75 in 5.0 mi SSE 4.6 mph - N/A Rain Light Rain
12:53 PM 42.8 °F 37.5 °F 39.2 °F 87% 29.73 in 10.0 mi SSE 9.2 mph - N/A   Overcast
1:53 PM 42.8 °F 40.1 °F 39.2 °F 87% 29.69 in 10.0 mi South 4.6 mph - N/A   Overcast
2:53 PM 41.0 °F 33.9 °F 37.4 °F 87% 29.67 in 5.0 mi SSE 12.7 mph 23.0 mph N/A Rain Rain
3:53 PM 39.2 °F 32.5 °F 37.4 °F 93% 29.66 in 10.0 mi SE 10.4 mph - N/A Rain Light Rain
4:53 PM 37.4 °F 31.4 °F 35.6 °F 93% 29.66 in 6.0 mi SSE 8.1 mph - N/A Rain Light Rain
5:53 PM 37.4 °F 32.1 °F 37.4 °F 100% 29.65 in 7.0 mi South 6.9 mph - N/A Rain Light Rain
6:53 PM 37.4 °F 32.8 °F 35.6 °F 93% 29.65 in 10.0 mi South 5.8 mph - N/A   Overcast
7:53 PM 37.4 °F 34.9 °F 35.6 °F 93% 29.63 in 10.0 mi SE 3.5 mph - N/A   Overcast
8:53 PM 37.4 °F - 35.6 °F 93% 29.63 in 10.0 mi Calm Calm - N/A   Overcast
9:53 PM 37.0 °F - 35.1 °F 93% 29.63 in 5.0 mi Calm Calm - 0.10 in Rain Rain
10:44 PM 36.0 °F 33.3 °F 34.0 °F 93% 29.63 in 8.0 mi South 3.5 mph - 0.08 in Rain Light Rain
10:53 PM 36.0 °F 33.3 °F 35.1 °F 97% 29.64 in 9.0 mi SSE 3.5 mph - 0.08 in Rain Light Rain
11:07 PM 36.0 °F 31.1 °F 35.1 °F 97% 29.63 in 10.0 mi SSE 5.8 mph - 0.00 in   Overcast
11:15 PM 36.0 °F 33.3 °F 34.0 °F 93% 29.64 in 10.0 mi South 3.5 mph - 0.00 in Rain Light Rain
11:53 PM 35.1 °F 31.0 °F 34.0 °F 96% 29.64 in 10.0 mi South 4.6 mph - 0.03 in   Overcast